User: anonymous   Login
Location: Brno
(49.2000°N, 16.6330°E)
Time: 11:36:49
(UTC+01:00)
Language:

CARTOSAT-1 - Orbit

View from above orbital plane
View from above orbital plane
View from above satellite
View from above satellite

Ground track
Ground track

The orbit data is extracted from the following two-line orbital elements,

1 28649U 05017A   14303.77433349  .00003060  00000-0  37853-3 0  7517
2 28649 097.8210 015.1029 0000430 057.7122 302.4053 14.83475308513590
Epoch (UTC): 30 October 2014 18:35:02
Eccentricity: 0.0000430
inclination: 97.8210°
perigee height: 618 km
apogee height: 618 km
right ascension of ascending node: 15.1029°
argument of perigee: 57.7122°
revolutions per day: 14.83475308
mean anomaly at epoch: 302.4053°
orbit number at epoch: 51359

The dashed part of the orbit path shows where the satellite is in the earth's shadow,  

DLR